Location: Kazanice
(53.5528°N, 19.7258°E)
Time: 23:42:41
(UTC+01:00)

ISS - Pass Details

Date: 25 January 2019
Orbit: 403 x 411 km, 51.6° (Epoch: 18 February)

Event Time Altitude Azimuth Distance (km) Brightness Sun altitude
Rises 18:29:11 0° 228° (SW) 2,329 0.9 -20.4°
Reaches altitude 10° 18:31:24 10° 216° (SW) 1,473 -0.5 -20.7°
Enters shadow 18:33:25 25° 185° (S) 871 -2.1 -21.0°
